Погода в Эль-Кувейте

Кувейт     29°21′55″N   47°58′23″E
темп.,
°C
ветер,
м/с
пор.,
м/с
влажн.,
%
обл.,
%
осадки,
мм/ч
давл.,
гПа
погр.,
м
27 ноября, сб
сб2700:00+22юв23633 0.0 1017124
03:00+22с45580 0.0 1017232
06:00+21ссз58480 0.0 1018313
09:00+22ссз69360 0.0 1020414
12:00+25ссз79240 0.0 1019708
15:00+26ссз89271 0.0 10171074
18:00+25ссз69270 0.0 1018832
21:00+23сз610320 0.0 1018448
28 ноября, вс
вс2800:00+22сз711364 0.0 1019509
03:00+20сз611395 0.0 1018480
06:00+19сз6104314 0.0 1019388
09:00+20зсз711390 0.0 1020495
12:00+24сз79284 0.0 1018963
15:00+25сз782489 0.0 10161202
18:00+24сз682799 0.0 1017994
21:00+22сз6931100 0.0 1018529
29 ноября, пн
пн2900:00+21сз611340 0.0 1018494
03:00+20сз611360 0.0 1018419
06:00+19сз510380 0.0 1018365
09:00+21сз710350 0.0 1020446
12:00+25сз79270 0.0 1018759
15:00+27сз79240 0.0 10161051
18:00+25сз610290 0.0 1017678
21:00+23сз510320 0.0 1017369
30 ноября, вт
вт3000:00+22сз510350 0.0 1016378
03:00+21сз611390 0.0 1016454
06:00+20зсз610410 0.0 1017359
09:00+20сз69380 0.0 1018411
12:00+24сз67313 0.0 1016738
15:00+25ссз56275 0.0 1015897
18:00+25с233235 0.0 1015135
21:00+23сз113627 0.0 101620
1 декабря, ср
ср100:00+22зсз2236100 0.0 101536
03:00+21з23375 0.0 101562
06:00+20зюз22378 0.0 101650
09:00+21юз23345 0.0 1017177
12:00+24юв13285 0.0 1015591
15:00+25вюв55315 0.0 1013489
18:00+23юв67455 0.0 1014247
21:00+21ююв69515 0.0 1014247